Location: Roland
(31.1349°N, 85.4372°W)
Time: 03:48:15
(UTC+00:00)

Courier 1B - Pass Details

Date: 26 April 2021
Orbit: 962 x 1209 km, 28.3° (Epoch: 07 May)

Event Time Altitude Azimuth Distance (km) Brightness Sun altitude
Rises 19:09:26 0° 273° (W) 3,772 10.9 63.0°
Reaches altitude 10° 19:12:13 10° 269° (W) 2,786 10.4 62.5°
Maximum altitude 19:18:47 57° 192° (SSW) 1,133 9.4 61.4°
Drops below altitude 10° 19:25:07 10° 115° (ESE) 2,687 9.8 60.2°
Sets 19:27:46 0° 111° (ESE) 3,629 10.3 59.7°
